Tracking 19572 objects as of 23-Feb-2019
HD Live streaming from Space Station
objects crossing your sky now

RELAY 2

Track RELAY 2 now!
10-day predictions
RELAY 2 is classified as:


NORAD ID: 737
Int'l Code: 1964-003A
Perigee: 1,872.2 km
Apogee: 7,642.5 km
Inclination: 46.5 °
Period: 194.7 minutes
Semi major axis: 11128 km
RCS: 0.7112 m2 (medium)
Launch date: January 21, 1964
Source: United States (US)
Launch site: AIR FORCE EASTERN TEST RANGE (AFETR)
aabbcc
Your satellite tracking list
Your tracking list is empty




NASA's NSSDC Master Catalog

Two Line Element Set (TLE):
1   737U 64003A   19054.47131438 -.00000010  00000-0  00000+0 0  9991
2   737  46.4605 111.1177 2592628 267.7786  62.7073  7.39534129488761
Source of the keplerian elements: AFSPC